EW9135 Weather Reports


time (UTC)temp
C
wind
direction
speed
KPH
gust
KPH
rain 1hr
cm
rain 24hr
cm
rain mn
cm
humidity
%
barometer
mb
20260905093412 12 211 0.0 0.0 0.00 0.00 0.00 37 1021.1
20260905092905 12 224 0.0 0.0 0.00 0.00 0.00 37 1021.4
20260905092400 12 238 0.0 0.0 0.00 0.00 0.00 38 1021.1
20260905091857 12 229 0.0 0.0 0.00 0.00 0.00 38 1021.4
20260905091851 12 229 0.0 0.0 0.00 0.00 0.00 38 1021.4
20260905090843 13 229 0.0 0.0 0.00 0.00 0.00 38 1021.4
20260905090339 13 237 0.0 0.0 0.00 0.00 0.00 38 1021.8
20260905085833 13 231 0.0 0.0 0.00 0.00 0.00 38 1021.4
20260905085327 13 231 0.0 0.0 0.00 0.00 0.00 38 1021.4
20260905084823 13 231 0.0 0.0 0.00 0.00 0.00 38 1021.4
20260905084316 13 227 0.0 0.0 0.00 0.00 0.00 37 1021.4
20260905083811 13 226 0.0 0.0 0.00 0.00 0.00 37 1021.4
20260905083802 13 229 0.0 0.0 0.00 0.00 0.00 37 1021.4
20260905083408 13 227 0.0 0.0 0.00 0.00 0.00 37 1021.4
20260905082254 13 231 0.0 0.0 0.00 0.00 0.00 36 1021.4
20260905081750 13 268 0.0 0.0 0.00 0.00 0.00 36 1021.4
20260905081244 14 205 0.0 0.0 0.00 0.00 0.00 36 1021.4
20260905080737 14 205 0.0 0.0 0.00 0.00 0.00 35 1021.4
20260905080233 14 194 0.0 0.0 0.00 0.00 0.00 34 1021.8
20260905075535 14 194 0.0 0.0 0.00 0.00 0.00 35 1021.4
20260905075029 14 195 0.0 0.0 0.00 0.00 0.00 35 1021.4
20260905074523 15 218 0.0 0.0 0.00 0.00 0.00 35 1021.4
20260905074018 15 227 0.0 0.0 0.00 0.00 0.00 35 1021.4
20260905073513 15 225 0.0 0.0 0.00 0.00 0.00 33 1021.1
20260905073008 15 226 0.0 0.0 0.00 0.00 0.00 34 1021.1
20260905072502 15 226 0.0 0.0 0.00 0.00 0.00 33 1021.1
20260905071956 15 232 0.0 0.0 0.00 0.00 0.00 32 1021.1
20260905071451 15 211 0.0 0.0 0.00 0.00 0.00 32 1021.4
20260905071442 15 208 0.0 0.0 0.00 0.00 0.00 32 1021.4
20260905071047 15 216 0.0 0.0 0.00 0.00 0.00 32 1021.1
20260905065934 15 180 0.0 0.0 0.00 0.00 0.00 32 1021.4
20260905065428 15 224 0.0 0.0 0.00 0.00 0.00 32 1021.4
20260905064923 15 218 0.0 0.0 0.00 0.00 0.00 32 1021.4
20260905064417 15 34 0.0 0.0 0.00 0.00 0.00 30 1021.1
20260905063912 15 232 0.0 0.0 0.00 0.00 0.00 32 1021.1
20260905063407 15 218 0.0 0.0 0.00 0.00 0.00 33 1021.1
20260905062901 15 224 0.0 0.0 0.00 0.00 0.00 32 1021.1
20260905062356 15 236 0.0 0.0 0.00 0.00 0.00 32 1021.4
20260905061850 15 230 0.0 0.0 0.00 0.00 0.00 33 1021.1
20260905061344 15 230 0.0 0.0 0.00 0.00 0.00 33 1021.4
20260905060840 15 234 0.0 0.0 0.00 0.00 0.00 33 1021.4
20260905060835 16 234 0.0 0.0 0.00 0.00 0.00 33 1021.4
20260905055829 16 224 0.0 0.0 0.00 0.00 0.00 32 1021.1
20260905055824 16 224 0.0 0.0 0.00 0.00 0.00 32 1021.4
20260905054817 16 229 0.0 0.0 0.00 0.00 0.00 32 1021.4
20260905054409 16 225 0.0 0.0 0.00 0.00 0.00 30 1021.4
20260905054311 16 232 0.0 0.0 0.00 0.00 0.00 31 1021.1
20260905054302 17 219 0.0 0.0 0.00 0.00 0.00 30 1021.4
20260905052755 17 238 0.0 0.0 0.00 0.00 0.00 30 1021.8
20260905052249 17 231 0.0 0.0 0.00 0.00 0.00 30 1021.8
20260905051744 17 238 0.0 0.0 0.00 0.00 0.00 28 1021.8
20260905051239 17 235 0.0 0.0 0.00 0.00 0.00 28 1021.4
20260905050733 17 293 0.0 0.0 0.00 0.00 0.00 28 1021.4
20260905050728 17 203 0.0 0.0 0.00 0.00 0.00 28 1021.8
20260905045722 17 232 0.0 0.0 0.00 0.00 0.00 28 1021.4
20260905045216 17 230 0.0 0.0 0.00 0.00 0.00 28 1021.8
20260905045207 17 239 0.0 0.0 0.00 0.00 0.00 28 1021.8
20260905044812 17 214 0.0 0.0 0.00 0.00 0.00 28 1021.8
20260905043659 18 260 0.0 0.0 0.00 0.00 0.00 29 1021.8
20260905043155 18 249 0.0 0.0 0.00 0.00 0.00 28 1021.4
20260905042648 18 312 0.0 0.0 0.00 0.00 0.00 28 1021.8
20260905042143 18 320 0.0 0.0 0.00 0.00 0.00 29 1021.4
20260905042138 18 234 0.0 0.0 0.00 0.00 0.00 29 1021.1
20260905041133 19 240 0.0 1.6 0.00 0.00 0.00 31 1021.1
20260905040626 19 201 0.0 1.6 0.00 0.00 0.00 30 1021.4
20260905040121 19 207 0.0 1.6 0.00 0.00 0.00 30 1021.1
20260905035615 19 235 0.0 1.6 0.00 0.00 0.00 31 1021.1
20260905035110 19 256 0.0 1.6 0.00 0.00 0.00 31 1020.7
20260905034607 20 351 0.0 1.6 0.00 0.00 0.00 30 1020.7
20260905034600 20 206 0.0 0.0 0.00 0.00 0.00 30 1020.7
20260905033554 20 293 0.0 0.0 0.00 0.00 0.00 29 1020.7
20260905033047 20 269 0.0 1.6 0.00 0.00 0.00 29 1020.7
20260905032543 20 297 0.0 1.6 0.00 0.00 0.00 28 1020.7
20260905032037 20 302 0.0 0.0 0.00 0.00 0.00 28 1020.4
20260905031532 20 188 0.0 0.0 0.00 0.00 0.00 27 1020.7
20260905031026 20 207 0.0 0.0 0.00 0.00 0.00 25 1020.7
20260905030520 20 214 0.0 0.0 0.00 0.00 0.00 25 1020.4
20260905030515 21 270 0.0 0.0 0.00 0.00 0.00 24 1020.1
20260905025509 21 293 0.0 0.0 0.00 0.00 0.00 24 1020.4
20260905025004 21 240 0.0 0.0 0.00 0.00 0.00 24 1020.4
20260905024459 21 276 0.0 0.0 0.00 0.00 0.00 24 1020.4
20260905023952 21 291 0.0 1.6 0.00 0.00 0.00 22 1020.1
20260905023447 21 13 0.0 1.6 0.00 0.00 0.00 22 1020.1
20260905022942 21 236 0.0 0.0 0.00 0.00 0.00 21 1020.1
20260905022436 22 201 0.0 3.2 0.00 0.00 0.00 21 1020.1
20260905021931 22 208 0.0 3.2 0.00 0.00 0.00 21 1020.1
20260905021425 22 242 0.0 0.0 0.00 0.00 0.00 20 1020.1
20260905020921 22 310 0.0 0.0 0.00 0.00 0.00 20 1019.7
20260905020915 22 297 0.0 3.2 0.00 0.00 0.00 19 1020.1
20260905015908 23 185 0.0 3.2 0.00 0.00 0.00 19 1019.7
20260905015403 23 308 0.0 1.6 0.00 0.00 0.00 19 1020.1
20260905014857 23 291 0.0 0.0 0.00 0.00 0.00 18 1020.1
20260905014352 23 321 0.0 0.0 0.00 0.00 0.00 17 1020.1
20260905013846 23 282 0.0 0.0 0.00 0.00 0.00 16 1020.1
20260905013838 24 227 0.0 3.2 0.00 0.00 0.00 15 1019.7
20260905013442 24 220 0.0 0.0 0.00 0.00 0.00 16 1020.1
20260905012330 24 197 0.0 3.2 0.00 0.00 0.00 14 1019.7
20260905011824 24 189 0.0 1.6 0.00 0.00 0.00 14 1019.7
20260905011318 24 250 0.0 1.6 0.00 0.00 0.00 13 1019.7
20260905010813 24 277 0.0 1.6 0.00 0.00 0.00 13 1019.7
20260905010307 24 242 0.0 0.0 0.00 0.00 0.00 13 1019.7
20260905005802 24 238 0.0 4.8 0.00 0.00 0.00 16 1019.7
20260905005257 25 34 0.0 4.8 0.00 0.00 0.00 14 1019.7
20260905004751 25 274 0.0 1.6 0.00 0.00 0.00 14 1019.7
20260905004245 25 211 0.0 1.6 0.00 0.00 0.00 13 1019.7
20260905003741 25 244 0.0 1.6 0.00 0.00 0.00 11 1019.4
20260905003736 25 248 0.0 1.6 0.00 0.00 0.00 11 1019.7
20260905002728 25 13 0.0 1.6 0.00 0.00 0.00 11 1019.7
20260905002224 25 311 0.0 3.2 0.00 0.00 0.00 11 1019.7
20260905001718 25 135 0.0 3.2 0.00 0.00 0.00 10 1019.7
20260905001212 25 214 0.0 0.0 0.00 0.00 0.00 10 1019.7
20260905001203 25 345 0.0 1.6 0.00 0.00 0.00 10 1019.7
20260905000808 25 105 0.0 0.0 0.00 0.00 0.00 10 1019.7
20260904235658 25 211 0.0 1.6 0.00 0.00 0.00 10 1019.7
20260904235653 25 238 0.0 1.6 0.00 0.00 0.00 10 1019.7
20260904234645 25 211 0.0 1.6 0.00 0.00 0.00 10 1019.7
20260904234139 25 309 0.0 0.0 0.00 0.00 0.00 10 1019.7
20260904233633 25 224 0.0 1.6 0.00 0.00 0.00 10 1019.7
20260904233127 25 204 0.0 1.6 0.00 0.00 0.00 10 1020.1
20260904232624 25 34 0.0 1.6 0.00 0.00 0.00 10 1019.7
20260904232619 25 242 0.0 1.6 0.00 0.00 0.00 10 1019.7
20260904232108 25 189 0.0 3.2 0.00 0.00 0.00 10 1020.1
20260904231712 25 352 0.0 3.2 0.00 0.00 0.00 11 1019.7
20260904230602 25 277 0.0 9.7 0.00 0.00 0.00 10 1020.1
20260904230055 26 309 0.0 9.7 0.00 0.00 0.00 10 1019.7
20260904225550 26 300 0.0 6.4 0.00 0.00 0.00 10 1020.1
20260904225044 26 323 0.0 6.4 0.00 0.00 0.00 10 1020.1
20260904224538 26 354 0.0 3.2 0.00 0.00 0.00 10 1019.7
20260904224032 26 172 0.0 3.2 0.00 0.00 0.00 10 1020.1
20260904223527 26 81 0.0 3.2 0.00 0.00 0.00 10 1020.1
20260904223022 26 249 0.0 3.2 0.00 0.00 0.00 10 1020.1
20260904222516 26 273 0.0 0.0 0.00 0.00 0.00 10 1020.4
20260904222011 26 222 0.0 1.6 0.00 0.00 0.00 10 1020.1
20260904221603 25 5 0.0 1.6 0.00 0.00 0.00 10 1020.4
20260904221505 25 215 0.0 1.6 0.00 0.00 0.00 10 1020.4
20260904221458 25 314 0.0 1.6 0.00 0.00 0.00 10 1020.4
20260904215949 25 348 0.0 3.2 0.00 0.00 0.00 11 1020.1
20260904215443 25 284 0.0 6.4 0.00 0.00 0.00 10 1020.7
20260904214937 25 71 1.6 9.7 0.00 0.00 0.00 10 1020.4
20260904214432 25 300 0.0 4.8 0.00 0.00 0.00 10 1020.4
20260904213927 25 162 0.0 9.7 0.00 0.00 0.00 10 1020.4
20260904213922 26 80 0.0 9.7 0.00 0.00 0.00 12 1020.4
20260904212915 26 314 0.0 3.2 0.00 0.00 0.00 11 1020.4
20260904212410 26 264 0.0 3.2 0.00 0.00 0.00 11 1020.7
20260904211904 26 17 0.0 3.2 0.00 0.00 0.00 10 1020.4
20260904211359 25 327 0.0 3.2 0.00 0.00 0.00 10 1020.4
20260904210853 25 186 0.0 3.2 0.00 0.00 0.00 11 1020.4
20260904210348 25 97 0.0 3.2 0.00 0.00 0.00 10 1020.4
20260904205843 25 292 0.0 3.2 0.00 0.00 0.00 10 1020.7
20260904205337 25 173 0.0 1.6 0.00 0.00 0.00 11 1020.4
20260904204832 25 350 0.0 3.2 0.00 0.00 0.00 10 1020.4
20260904204326 25 296 0.0 3.2 0.00 0.00 0.00 11 1020.4
20260904203822 24 262 0.0 3.2 0.00 0.00 0.00 13 1020.7
20260904203817 24 161 0.0 3.2 0.00 0.00 0.00 12 1020.7
20260904202809 25 210 0.0 3.2 0.00 0.00 0.00 13 1020.4
20260904202306 25 275 0.0 3.2 0.00 0.00 0.00 11 1020.7
20260904201758 25 268 0.0 3.2 0.00 0.00 0.00 13 1020.4
20260904201253 25 54 0.0 3.2 0.00 0.00 0.00 13 1020.7
20260904200748 25 81 0.0 3.2 0.00 0.00 0.00 16 1020.7
20260904200742 25 100 0.0 3.2 0.00 0.00 0.00 13 1020.7
20260904195737 25 217 0.0 0.0 0.00 0.00 0.00 11 1020.7
20260904195231 25 95 0.0 1.6 0.00 0.00 0.00 12 1020.7
20260904194727 25 249 0.0 1.6 0.00 0.00 0.00 12 1020.7
20260904194721 25 184 0.0 1.6 0.00 0.00 0.00 11 1020.7
20260904193714 25 275 0.0 1.6 0.00 0.00 0.00 11 1021.1
20260904193210 25 278 0.0 0.0 0.00 0.00 0.00 11 1020.7
20260904193205 25 323 0.0 0.0 0.00 0.00 0.00 12 1020.7
20260904192158 24 303 0.0 1.6 0.00 0.00 0.00 16 1021.1
20260904191652 24 294 0.0 1.6 0.00 0.00 0.00 13 1021.1
20260904191147 24 295 0.0 0.0 0.00 0.00 0.00 10 1021.1
20260904190641 24 306 0.0 0.0 0.00 0.00 0.00 12 1021.1
20260904190135 24 72 0.0 0.0 0.00 0.00 0.00 16 1021.1
20260904185631 23 227 0.0 0.0 0.00 0.00 0.00 16 1020.7
20260904185625 23 48 0.0 0.0 0.00 0.00 0.00 15 1021.1
20260904184619 23 224 0.0 0.0 0.00 0.00 0.00 12 1021.4
20260904184113 23 229 0.0 3.2 0.00 0.00 0.00 13 1021.4
20260904183607 23 322 0.0 3.2 0.00 0.00 0.00 16 1021.1
20260904183101 23 241 0.0 3.2 0.00 0.00 0.00 16 1021.1
20260904182558 23 135 0.0 3.2 0.00 0.00 0.00 17 1021.1
20260904182051 23 284 0.0 1.6 0.00 0.00 0.00 17 1021.4
20260904181545 23 112 0.0 1.6 0.00 0.00 0.00 16 1021.1
20260904181041 23 316 0.0 3.2 0.00 0.00 0.00 17 1021.4
20260904180534 23 228 0.0 3.2 0.00 0.00 0.00 21 1021.4
20260904180030 23 44 0.0 1.6 0.00 0.00 0.00 18 1021.8
20260904180024 22 247 0.0 1.6 0.00 0.00 0.00 21 1021.4
20260904175018 22 231 0.0 1.6 0.00 0.00 0.00 21 1021.4
20260904174512 22 302 0.0 0.0 0.00 0.00 0.00 19 1021.4
20260904174007 22 226 0.0 0.0 0.00 0.00 0.00 19 1021.4
20260904173502 22 194 0.0 0.0 0.00 0.00 0.00 19 1021.4
20260904173457 22 237 0.0 1.6 0.00 0.00 0.00 18 1021.4
20260904172450 22 283 0.0 1.6 0.00 0.00 0.00 19 1021.1
20260904171945 22 206 0.0 1.6 0.00 0.00 0.00 19 1021.1
20260904171439 22 347 0.0 0.0 0.00 0.00 0.00 20 1021.4
20260904170933 22 175 0.0 0.0 0.00 0.00 0.00 21 1021.1
20260904170429 22 68 0.0 0.0 0.00 0.00 0.00 18 1021.4
20260904170423 22 258 0.0 0.0 0.00 0.00 0.00 19 1021.4
20260904165417 21 302 0.0 0.0 0.00 0.00 0.00 19 1021.1
20260904164913 21 4 0.0 0.0 0.00 0.00 0.00 20 1021.1
20260904164907 21 264 0.0 0.0 0.00 0.00 0.00 19 1021.1
20260904163900 21 223 0.0 0.0 0.00 0.00 0.00 19 1021.1
20260904163354 21 267 0.0 0.0 0.00 0.00 0.00 20 1021.1
20260904162849 21 309 0.0 0.0 0.00 0.00 0.00 20 1020.7
20260904162344 21 204 0.0 0.0 0.00 0.00 0.00 20 1020.7
20260904161839 21 174 0.0 0.0 0.00 0.00 0.00 19 1020.7
20260904161833 21 240 0.0 0.0 0.00 0.00 0.00 20 1020.7
20260904160827 20 206 0.0 0.0 0.00 0.00 0.00 20 1020.7
20260904160322 20 202 0.0 0.0 0.00 0.00 0.00 20 1020.7
20260904155816 20 196 0.0 0.0 0.00 0.00 0.00 21 1020.7
20260904155310 20 244 0.0 0.0 0.00 0.00 0.00 21 1020.7
20260904154805 20 203 0.0 0.0 0.00 0.00 0.00 21 1020.7
20260904154300 20 231 0.0 0.0 0.00 0.00 0.00 23 1020.7
20260904153754 20 259 0.0 0.0 0.00 0.00 0.00 24 1020.7
20260904153248 19 209 0.0 0.0 0.00 0.00 0.00 22 1020.7
20260904152743 19 228 0.0 0.0 0.00 0.00 0.00 22 1020.7
20260904152238 19 233 0.0 0.0 0.00 0.00 0.00 23 1021.1
20260904151733 18 198 0.0 0.0 0.00 0.00 0.00 28 1020.7
20260904151226 18 218 0.0 0.0 0.00 0.00 0.00 31 1020.7
20260904150721 18 215 0.0 0.0 0.00 0.00 0.00 30 1020.7
20260904150216 17 202 0.0 0.0 0.00 0.00 0.00 28 1020.7
20260904145709 17 193 0.0 0.0 0.00 0.00 0.00 25 1020.7
20260904145204 16 219 0.0 0.0 0.00 0.00 0.00 31 1020.7
20260904144659 16 197 0.0 0.0 0.00 0.00 0.00 32 1020.4
20260904144245 15 140 0.0 0.0 0.00 0.00 0.00 33 1020.4
20260904144154 15 202 0.0 0.0 0.00 0.00 0.00 32 1020.7
20260904144139 15 189 0.0 0.0 0.00 0.00 0.00 35 1020.4
20260904143243 15 188 0.0 0.0 0.00 0.00 0.00 35 1020.4
20260904142131 15 206 0.0 0.0 0.00 0.00 0.00 37 1020.1
20260904141622 15 233 0.0 0.0 0.00 0.00 0.00 36 1019.7
20260904140615 15 192 0.0 0.0 0.00 0.00 0.00 36 1020.1
20260904140109 15 182 0.0 0.0 0.00 0.00 0.00 36 1020.1
20260904135603 15 124 0.0 0.0 0.00 0.00 0.00 36 1019.7
20260904135100 15 214 0.0 0.0 0.00 0.00 0.00 36 1019.7
20260904135054 15 247 0.0 0.0 0.00 0.00 0.00 36 1019.7
20260904134047 15 219 0.0 0.0 0.00 0.00 0.00 36 1019.7
20260904133542 15 256 0.0 0.0 0.00 0.00 0.00 36 1019.7
20260904133036 15 268 0.0 0.0 0.00 0.00 0.00 36 1019.4
20260904132530 15 210 0.0 0.0 0.00 0.00 0.00 36 1019.7
20260904132025 15 205 0.0 0.0 0.00 0.00 0.00 36 1019.7
20260904131520 15 250 0.0 0.0 0.00 0.00 0.00 36 1019.7
20260904131014 15 238 0.0 0.0 0.00 0.00 0.00 36 1019.4
20260904131009 15 230 0.0 0.0 0.00 0.00 0.00 35 1019.4
20260904130005 15 213 0.0 0.0 0.00 0.00 0.00 35 1019.4
20260904125457 15 215 0.0 0.0 0.00 0.00 0.00 35 1019.4
20260904124952 15 248 0.0 0.0 0.00 0.00 0.00 35 1019.1
20260904124446 15 252 0.0 0.0 0.00 0.00 0.00 36 1019.1
20260904123942 15 255 0.0 0.0 0.00 0.00 0.00 36 1019.1
20260904123936 16 238 0.0 0.0 0.00 0.00 0.00 36 1019.4
20260904122929 16 236 0.0 0.0 0.00 0.00 0.00 36 1019.1
20260904122428 16 250 0.0 0.0 0.00 0.00 0.00 35 1019.4
20260904122420 16 238 0.0 0.0 0.00 0.00 0.00 34 1019.4
20260904121413 16 274 0.0 0.0 0.00 0.00 0.00 34 1019.4
20260904121408 16 248 0.0 0.0 0.00 0.00 0.00 34 1019.4
20260904120403 16 247 0.0 0.0 0.00 0.00 0.00 34 1019.4
20260904115857 16 233 0.0 0.0 0.00 0.00 0.00 33 1019.1
20260904115351 16 205 0.0 0.0 0.00 0.00 0.00 33 1019.4
20260904114846 17 273 0.0 0.0 0.00 0.00 0.00 33 1019.4
20260904114340 17 246 0.0 0.0 0.00 0.00 0.00 33 1019.4
20260904113834 17 238 0.0 0.0 0.00 0.00 0.00 32 1019.4
20260904113329 17 229 0.0 0.0 0.00 0.00 0.00 33 1019.1
20260904113324 17 228 0.0 0.0 0.00 0.00 0.00 33 1019.4
20260904112318 17 222 0.0 0.0 0.00 0.00 0.00 33 1019.4
20260904111813 17 233 0.0 0.0 0.00 0.00 0.00 33 1019.4
20260904111307 17 281 0.0 0.0 0.00 0.00 0.00 32 1019.7
20260904110803 17 254 0.0 0.0 0.00 0.00 0.00 32 1019.4
20260904110758 17 198 0.0 0.0 0.00 0.00 0.00 32 1019.4
20260904105751 17 320 0.0 0.0 0.00 0.00 0.00 32 1019.4
20260904105245 17 248 0.0 0.0 0.00 0.00 0.00 32 1019.4
20260904104739 17 247 0.0 0.0 0.00 0.00 0.00 32 1019.4
20260904104233 17 274 0.0 0.0 0.00 0.00 0.00 32 1019.1
20260904103728 17 309 0.0 0.0 0.00 0.00 0.00 32 1019.1
20260904103223 17 298 0.0 0.0 0.00 0.00 0.00 32 1019.1
20260904102717 17 346 0.0 0.0 0.00 0.00 0.00 32 1019.1
20260904102212 17 247 0.0 0.0 0.00 0.00 0.00 32 1019.1
20260904101705 17 250 0.0 0.0 0.00 0.00 0.00 32 1019.1
20260904101201 17 296 0.0 0.0 0.00 0.00 0.00 32 1019.1
20260904100655 17 204 0.0 0.0 0.00 0.00 0.00 32 1019.1
20260904100149 17 229 0.0 0.0 0.00 0.00 0.00 32 1019.1
20260904095644 17 349 0.0 0.0 0.00 0.00 0.00 32 1019.1
20260904095139 17 234 0.0 0.0 0.00 0.00 0.00 32 1018.7
20260904094633 17 284 0.0 0.0 0.00 0.00 0.00 32 1018.7